Weather History for Montpelier, VT

Change the Weather History Date:

Tuesday, January 1, 2013

  Actual Average Record
Temperature  
Mean Temperature 19 °F 18 °F  
Max Temperature 31 °F 27 °F 55 °F (1952)
Min Temperature 7 °F 9 °F -21 °F (1968)
Degree Days  
Heating Degree Days 46 47  
Month to date heating degree days 46 47  
Since 1 July heating degree days 3009 3195  
Moisture  
Dew Point 12 °F    
Average Humidity 72    
Maximum Humidity 85    
Minimum Humidity 59    
Precipitation  
Precipitation T in 0.07 in 0.82 in (1961)
Month to date precipitation T 0.07  
Year to date precipitation T 0.07  
Sea Level Pressure  
Sea Level Pressure 29.79 in    
Wind  
Wind Speed 12 mph (NW)    
Max Wind Speed 23 mph    
Max Gust Speed 32 mph    
Visibility 6 miles    
Events Snow    
T = Trace of Precipitation, MM = Missing Value Source: NWS Daily Summary

Daily Weather History Graph

Daily Weather History Graph

Search for Another Location

Airport:

Trip Planner

Search our weather history database for the weather conditions in past years. The results will help you decide how hot, cold, wet, or windy it might be!

Date:

Astronomy

Jan. 01, 2013 Rise Set
Actual Time 7:25 AM EST 4:22 PM EST
Civil Twilight 6:52 AM EST 4:55 PM EST
Nautical Twilight 6:16 AM EST 5:31 PM EST
Astronomical Twilight 5:41 AM EST 6:07 PM EST
Moon 9:01 PM EST (1/1) 9:26 AM EST (1/1)
Length of Visible Light 10h 02m
Length of Day
8h 56m
Waning Gibbous, 83% of the Moon is Illuminated
Jan 1
Waning Gibbous
Jan 4
Last Quarter
Jan 11
New
Jan 18
First Quarter
Jan 26
Full

Hourly Weather History & Observations

Time (EST) Temp. Windchill Dew Point Humidity Pressure Visibility Wind Dir Wind Speed Gust Speed Precip Events Conditions
12:34 AM 28.4 °F 19.7 °F 24.8 °F 86% 29.64 in 2.5 mi WSW 9.2 mph 18.4 mph 0.00 in Snow Light Snow
12:51 AM 28.9 °F 21.9 °F 25.0 °F 85% 29.69 in 2.0 mi WSW 6.9 mph - 0.00 in Snow Light Snow
12:55 AM 28.4 °F 23.3 °F 24.8 °F 86% 29.64 in 3.0 mi WSW 4.6 mph - 0.00 in Snow Light Snow
1:08 AM 28.4 °F 22.2 °F 26.6 °F 93% 29.65 in 4.0 mi WNW 5.8 mph - 0.00 in Snow Light Snow
1:33 AM 30.2 °F 21.9 °F 24.8 °F 80% 29.65 in 7.0 mi West 9.2 mph 24.2 mph 0.00 in Snow Light Snow
1:51 AM 30.0 °F 21.7 °F 23.0 °F 75% 29.70 in 10.0 mi West 9.2 mph 18.4 mph 0.00 in   Overcast
2:51 AM 30.0 °F 22.4 °F 19.9 °F 66% 29.70 in 9.0 mi West 8.1 mph 18.4 mph 0.00 in   Overcast
3:19 AM 28.4 °F 15.8 °F 21.2 °F 74% 29.65 in 1.5 mi WNW 18.4 mph 27.6 mph 0.00 in Snow Light Snow
3:24 AM 28.4 °F 16.2 °F 23.0 °F 80% 29.66 in 1.0 mi WNW 17.3 mph 25.3 mph 0.00 in Snow Light Snow
3:29 AM 28.4 °F 18.0 °F 24.8 °F 86% 29.66 in 1.5 mi WNW 12.7 mph 23.0 mph 0.00 in Snow Light Snow
3:36 AM 28.4 °F 17.5 °F 24.8 °F 86% 29.67 in 1.8 mi WNW 13.8 mph - 0.00 in Snow Light Snow
3:43 AM 26.6 °F 17.5 °F 24.8 °F 93% 29.66 in 3.0 mi West 9.2 mph 19.6 mph 0.00 in Snow Light Snow
3:51 AM 28.0 °F 16.1 °F 24.1 °F 85% 29.71 in 5.0 mi WNW 16.1 mph 24.2 mph 0.00 in Snow Light Snow
4:51 AM 25.0 °F 10.6 °F 17.1 °F 72% 29.73 in 3.0 mi WNW 20.7 mph 29.9 mph 0.00 in   Partly Cloudy
5:11 AM 24.8 °F 10.7 °F 17.6 °F 74% 29.70 in 1.8 mi NNW 19.6 mph 31.1 mph 0.00 in Snow Light Snow
5:13 AM 24.8 °F 10.7 °F 19.4 °F 80% 29.70 in 1.0 mi NW 19.6 mph 29.9 mph 0.00 in Snow Light Snow
5:21 AM 23.0 °F 10.6 °F 19.4 °F 86% 29.72 in 0.8 mi NW 13.8 mph 26.5 mph 0.00 in Snow Light Snow
5:25 AM 23.0 °F 12.4 °F 19.4 °F 86% 29.72 in 1.2 mi NW 10.4 mph 21.9 mph 0.00 in Snow Light Snow
5:32 AM 21.2 °F 11.7 °F 17.6 °F 86% 29.73 in 2.0 mi WNW 8.1 mph 23.0 mph 0.00 in Snow Light Snow
5:44 AM 19.4 °F 9.5 °F 15.8 °F 86% 29.75 in 5.0 mi NW 8.1 mph 20.7 mph 0.00 in Snow Light Snow
5:51 AM 19.9 °F 8.6 °F 14.0 °F 78% 29.81 in 7.0 mi NW 10.4 mph 19.6 mph 0.00 in   Overcast
6:03 AM 19.4 °F 8.6 °F 12.2 °F 74% 29.76 in 7.0 mi NNW 9.2 mph 19.6 mph 0.00 in Snow Light Snow
6:51 AM 18.0 °F 6.1 °F 10.9 °F 74% 29.84 in 10.0 mi WNW 10.4 mph 20.7 mph 0.00 in   Mostly Cloudy
7:51 AM 16.0 °F 0.1 °F 9.0 °F 74% 29.87 in 2.0 mi NW 17.3 mph 24.2 mph 0.00 in Snow Light Snow
8:06 AM 15.8 °F 0.9 °F 8.6 °F 73% 29.82 in 4.0 mi NW 15.0 mph 23.0 mph 0.00 in   Haze
8:23 AM 15.8 °F 0.3 °F 8.6 °F 73% 29.82 in 2.5 mi NNW 16.1 mph 26.5 mph 0.00 in   Overcast
8:36 AM 15.8 °F 1.4 °F 8.6 °F 73% 29.82 in 3.0 mi NNW 13.8 mph 27.6 mph 0.00 in   Overcast
8:51 AM 15.1 °F -0.1 °F 8.1 °F 74% 29.88 in 3.0 mi NNW 15.0 mph 26.5 mph 0.00 in   Overcast
9:24 AM 14.0 °F -2.5 °F 6.8 °F 73% 29.82 in 5.0 mi NW 17.3 mph 25.3 mph 0.00 in   Overcast
9:51 AM 15.1 °F -0.1 °F 3.9 °F 61% 29.90 in 10.0 mi NW 15.0 mph 21.9 mph 0.00 in   Overcast
10:51 AM 14.0 °F -0.8 °F 3.9 °F 64% 29.91 in 10.0 mi NNW 13.8 mph 21.9 mph N/A   Overcast
11:51 AM 14.0 °F -0.8 °F 3.9 °F 64% 29.88 in 10.0 mi NW 13.8 mph 19.6 mph N/A   Mostly Cloudy
12:51 PM 14.0 °F -0.2 °F 3.9 °F 64% 29.86 in 10.0 mi NNW 12.7 mph - N/A   Clear
1:51 PM 15.1 °F 1.8 °F 3.9 °F 61% 29.86 in 10.0 mi NW 11.5 mph 20.7 mph N/A   Scattered Clouds
2:51 PM 12.9 °F -1.6 °F 3.9 °F 67% 29.88 in 10.0 mi North 12.7 mph - N/A   Mostly Cloudy
3:51 PM 12.0 °F -1.3 °F 1.0 °F 61% 29.88 in 10.0 mi NNW 10.4 mph 19.6 mph N/A   Partly Cloudy
4:51 PM 10.9 °F -2.6 °F -0.9 °F 59% 29.90 in 10.0 mi WNW 10.4 mph - N/A   Clear
5:51 PM 10.0 °F -4.5 °F -0.9 °F 61% 29.92 in 10.0 mi WNW 11.5 mph - N/A   Clear
6:51 PM 10.0 °F -2.9 °F -0.0 °F 64% 29.95 in 10.0 mi WNW 9.2 mph - N/A   Clear
7:51 PM 9.0 °F -6.6 °F -0.0 °F 67% 29.96 in 10.0 mi WNW 12.7 mph 21.9 mph N/A   Clear
8:51 PM 8.1 °F -8.4 °F -0.9 °F 67% 29.97 in 10.0 mi NW 13.8 mph 24.2 mph N/A   Clear
9:51 PM 8.1 °F -4.3 °F -0.9 °F 67% 29.97 in 10.0 mi NW 8.1 mph - N/A   Mostly Cloudy
10:51 PM 8.1 °F -3.2 °F -0.0 °F 70% 29.97 in 10.0 mi North 6.9 mph - N/A   Overcast
11:51 PM 8.1 °F - 1.0 °F 73% 29.96 in 10.0 mi Calm Calm - N/A   Overcast